Location: Cheching
(60.0667°N, 164.2167°W)
Time: 03:18:43
(UTC+00:00)

FO-99 - Pass Details

Date: 23 January 2021
Orbit: 473 x 506 km, 97.2° (Epoch: 03 March)

Event Time Altitude Azimuth Distance (km) Brightness Sun altitude
Exits shadow 05:35:32 11° 5° (N) 1,662 ? -20.0°
Drops below altitude 10° 05:35:40 10° 4° (N) 1,705 ? -20.1°
Sets 05:38:00 0° 350° (N) 2,585 ? -20.3°
